EW1425 Weather Reports


time (UTC)temp
C
wind
direction
speed
KPH
gust
KPH
rain 1hr
cm
rain 24hr
cm
rain mn
cm
humidity
%
barometer
mb
20211025043048 11 262 0.0 0.0 0.00 0.00 0.00 84 1022.2
20211025041622 12 262 0.0 0.0 0.00 0.00 0.00 82 1022.1
20211025040048 12 262 0.0 0.0 0.00 0.00 0.00 81 1021.8
20211025034536 12 262 0.0 0.0 0.00 0.00 0.00 80 1021.8
20211025033027 11 262 0.0 0.0 0.00 0.00 0.00 81 1021.9
20211025031548 11 262 0.0 0.0 0.00 0.00 0.00 81 1021.7
20211025024604 11 262 0.0 1.6 0.00 0.00 0.00 82 1021.8
20211025023045 11 262 0.0 0.0 0.00 0.00 0.00 82 1021.7
20211025021523 11 262 0.0 0.0 0.00 0.00 0.00 81 1021.7
20211025020054 11 262 0.0 0.0 0.00 0.00 0.00 82 1021.8
20211025014518 10 262 0.0 0.0 0.00 0.00 0.00 83 1021.7
20211025013131 10 262 0.0 0.0 0.00 0.00 0.00 83 1021.5
20211025011534 10 261 0.0 0.0 0.00 0.00 0.00 83 1021.4
20211025010021 11 262 0.0 0.0 0.00 0.00 0.00 81 1021.5
20211025004513 11 262 0.0 0.0 0.00 0.00 0.00 80 1021.5
20211025003011 11 262 0.0 0.0 0.00 0.00 0.00 79 1021.7
20211025001534 11 262 0.0 3.2 0.00 0.00 0.00 78 1021.8
20211025000009 11 262 0.0 3.2 0.00 0.00 0.00 77 1022.0
20211024234523 11 278 0.0 1.6 0.00 0.00 0.00 75 1021.8
20211024233004 11 288 0.0 3.2 0.00 0.00 0.00 75 1021.8
20211024231536 11 300 0.0 3.2 0.00 0.00 0.00 74 1021.6
20211024230004 11 265 0.0 1.6 0.00 0.00 0.00 72 1021.5
20211024224631 12 259 0.0 4.8 0.00 0.00 0.00 70 1021.5
20211024223126 12 295 0.0 1.6 0.00 0.00 0.00 71 1021.3
20211024221638 12 344 0.0 3.2 0.00 0.00 0.00 70 1021.3
20211024220132 12 273 0.0 1.6 0.00 0.00 0.00 70 1021.2
20211024214613 12 299 0.0 3.2 0.00 0.00 0.00 69 1021.0
20211024213125 12 314 0.0 4.8 0.00 0.00 0.00 68 1020.7
20211024211705 13 299 0.0 3.2 0.00 0.00 0.00 67 1020.8
20211024210124 13 326 0.0 6.4 0.00 0.00 0.00 65 1020.8
20211024204658 13 269 0.0 6.4 0.00 0.00 0.00 64 1020.7
20211024203152 13 309 0.0 3.2 0.00 0.00 0.00 63 1020.7
20211024201622 13 224 0.0 6.4 0.00 0.00 0.00 61 1020.6
20211024200201 13 246 0.0 4.8 0.00 0.00 0.00 59 1020.4
20211024194636 13 230 0.0 4.8 0.00 0.00 0.00 56 1020.3
20211024193142 13 304 0.0 6.4 0.00 0.00 0.00 54 1020.3
20211024191622 13 290 0.0 6.4 0.00 0.00 0.00 53 1020.4
20211024190140 13 321 1.6 8.0 0.00 0.00 0.00 52 1020.4
20211024184659 13 249 0.0 8.0 0.00 0.00 0.00 50 1020.3
20211024183144 13 295 1.6 9.7 0.00 0.00 0.00 49 1020.3
20211024181626 13 267 1.6 8.0 0.00 0.00 0.00 48 1020.5
20211024180102 13 299 1.6 6.4 0.00 0.00 0.00 47 1020.5
20211024174652 13 304 0.0 8.0 0.00 0.00 0.00 49 1020.5
20211024173114 12 285 0.0 6.4 0.00 0.00 0.00 48 1020.3
20211024171558 12 278 1.6 6.4 0.00 0.00 0.00 47 1020.7
20211024170059 12 293 1.6 6.4 0.00 0.00 0.00 49 1020.7
20211024164544 12 286 1.6 4.8 0.00 0.00 0.00 49 1020.6
20211024163039 12 285 0.0 3.2 0.00 0.00 0.00 49 1020.6
20211024161601 12 267 1.6 4.8 0.00 0.00 0.00 50 1020.6
20211024160101 12 314 0.0 3.2 0.00 0.00 0.00 51 1020.6
20211024154545 12 266 0.0 4.8 0.00 0.00 0.00 52 1021.0
20211024153122 11 311 0.0 6.4 0.00 0.00 0.00 51 1021.2
20211024151627 12 309 0.0 3.2 0.00 0.00 0.00 52 1021.0
20211024150053 11 302 1.6 6.4 0.00 0.00 0.00 51 1021.1
20211024144534 11 300 0.0 6.4 0.00 0.00 0.00 52 1021.2
20211024143054 12 264 0.0 6.4 0.00 0.00 0.00 53 1021.2
20211024141534 11 319 1.6 8.0 0.00 0.00 0.00 49 1021.2
20211024140033 11 312 0.0 6.4 0.00 0.00 0.00 51 1021.2
20211024134517 11 41 0.0 6.4 0.00 0.00 0.00 53 1021.3
20211024133021 10 25 0.0 6.4 0.00 0.00 0.00 55 1021.3
20211024131534 10 56 0.0 9.7 0.00 0.00 0.00 57 1021.2
20211024130007 10 40 0.0 4.8 0.00 0.00 0.00 64 1021.2
20211024124511 9 299 0.0 3.2 0.00 0.00 0.00 69 1021.0
20211024123008 8 16 0.0 3.2 0.00 0.00 0.00 73 1020.7
20211024121610 7 273 0.0 6.4 0.00 0.00 0.00 76 1020.6
20211024120352 7 306 0.0 3.2 0.00 0.00 0.00 78 1020.4
20211024114615 6 336 0.0 3.2 0.00 0.00 0.00 79 1020.1
20211024113115 6 285 0.0 3.2 0.00 0.00 0.00 80 1019.9
20211024111625 6 282 0.0 4.8 0.00 0.00 0.00 80 1019.6
20211024110057 7 295 0.0 4.8 0.00 0.00 0.00 80 1019.2
20211024104638 7 265 0.0 3.2 0.00 0.00 0.00 80 1019.0
20211024103144 7 271 0.0 3.2 0.00 0.00 0.00 80 1018.6
20211024101638 7 309 0.0 1.6 0.00 0.00 0.00 81 1018.4
20211024100056 7 338 0.0 1.6 0.00 0.00 0.00 82 1018.3
20211024094541 7 322 0.0 0.0 0.00 0.00 0.00 82 1018.1
20211024093053 7 305 0.0 0.0 0.00 0.00 0.00 82 1017.9
20211024091555 7 305 0.0 0.0 0.00 0.00 0.00 81 1017.7
20211024090033 7 297 0.0 1.6 0.00 0.00 0.00 82 1017.4
20211024084530 7 285 0.0 1.6 0.00 0.00 0.00 80 1017.3
20211024083029 7 285 0.0 0.0 0.00 0.00 0.00 79 1017.1
20211024081551 8 285 0.0 1.6 0.00 0.00 0.00 78 1016.9
20211024080024 8 285 0.0 1.6 0.00 0.00 0.00 77 1016.7
20211024074522 8 285 0.0 1.6 0.00 0.00 0.00 76 1016.6
20211024073015 8 285 0.0 1.6 0.00 0.00 0.00 74 1016.5
20211024071516 9 276 0.0 1.6 0.00 0.00 0.00 74 1016.1
20211024070021 9 326 0.0 1.6 0.00 0.00 0.00 74 1016.0
20211024064511 9 290 0.0 1.6 0.00 0.00 0.00 74 1016.0
20211024063006 9 290 0.0 1.6 0.00 0.00 0.00 72 1015.9
20211024061519 10 297 0.0 1.6 0.00 0.00 0.00 72 1016.0
20211024060009 10 325 0.0 3.2 0.00 0.00 0.00 72 1015.8
20211024054502 10 280 0.0 3.2 0.00 0.00 0.00 71 1015.7
20211024053301 10 337 0.0 4.8 0.00 0.00 0.00 70 1015.3
20211024051735 10 265 0.0 1.6 0.00 0.00 0.00 70 1015.5
20211024050125 10 281 0.0 3.2 0.00 0.00 0.00 69 1015.4
20211024044618 10 288 0.0 1.6 0.00 0.00 0.00 71 1015.1